THORAD AGENA D DEB, 42503

Orbit data source: Space-Track

THORAD AGENA D DEB, 42503 is space debris in SSO originally from a launch on Wed, 08 Apr 1970 UTC launched from the Air Force Western Test Range (AFWTR). Debris objects in space refer to the collection of defunct objects orbiting the Earth. Examples of debris include non-operational satellites, rocket bodies, and fragments generated from explosions, collisions, or faulty payload assembly.

Loading next visibility...
Identifier
42503, 1970-025RH
Orbit
SSO
Country
Flag of USUS
Related business
Manufacturer
Unknown
Mission
Spacecraft
Bus & Motor
Unknown
Mass
Unknown
Launch date (UTC)
1970-04-08 (56 years ago)
Launch vehicle
Unknown
Launch site
Air Force Western Test Range (AFWTR)
Object type
Payload
Rocket body
Debris
Shape & HBR
Unknown shape, 0.1 m
Radar Cross Section
Medium (>0.1 m² and <1 m²)

Expand to show TLE details & history
Last TLE update: 3 days ago

TLE from 3 days ago
0 THORAD AGENA D DEB
1 42503U 70025RH  26167.32299672  .00000747  00000-0  67984-3 0  9995
2 42503  99.9420 185.8337 0017619 128.9674 231.3053 13.86996234634242
Epoch: 2026-06-16T07:45Z
TLE epoch observation values (Epoch: 2026-06-16T07:45:06.916Z)
Latitude
-0.00002°
Longitude
164.9582°
Altitude
950.079 km
Speed
7.373 km/s
True Right ascension
12h 23m 20s
True Declination
0° 00' 00"
Sunlit
Object was in daylight at epoch
Visualization orbit readout
Latitude
Unknown
Longitude
Unknown
Altitude
Unknown
Speed
Unknown
Apparent Right ascension
Unknown
Apparent Declination
Unknown
Sunlit
N/A
Visualization observer readout
Local Sidereal Time
08:53:00
Azimuth
Unknown
Elevation
Unknown
Doppler factor
Unknown
Orbital elements
Apogee altitude
949.329 km
Perigee altitude
923.554 km
Semi-major axis
7,314.578 km
Eccentricity
0.00176
Inclination
99.942°
RAAN
185.8337°
Arg. of periapsis
128.9674°
True anomaly
231.14794°
Mean anomaly
231.3053°
Eccentric anomaly
231.2266°
Mean motion
3.46944 °/min
Orbital period
103.76 mins
BSTAR
0.00067984
Loading maneuver chart data...
Computing Atmospheric mass density...

Documentation

Showing up to 5 results
|